2025-292G

Last updated on Mon Dec 15 2025 00:02:13 GMT+0000 (Coordinated Universal Time)

1 66999U 25292G 25348.66798670 .00005221 00000+0 37236-3 0 9993 2 66999 97.6580 61.2051 0014012 273.0324 86.9298 15.04914178 686
UTC large
Height (km)
Speed (km/s)
/
Latitude / Longitude
Inclination (degrees)
Orbital Period (minutes)
Azimuth
Elevation
Range (km)
Doppler Factor

Next 0 passes for location: London (51.5072 / 0.1276)

Sorry there are no passes over London.